ACA418 CYYZ-CYUL

Flight info

Callsign ACA418
Flight time 0h 51m
Altitude 31000
Route DEDKI5 MIGLO HABBS7
Aircraft A320/M-SDE3FGHIRWY/LB1

Departure

Time 2026-05-05 20:20
Airport Toronto Pearson International Airport (CYYZ)

Arrival

Time 2026-05-05 21:11
Airport Montreal / Pierre Elliott Trudeau International Airport (CYUL)
Time Latitude Longitude Altitude Speed Heading
2026-05-05 19:49 43.68021 -79.61705 569 ft 0 kts 136°
2026-05-05 19:59 43.68022 -79.61705 561 ft 0 kts 136°
2026-05-05 20:07 43.68032 -79.61720 571 ft 4 kts 136°
2026-05-05 20:07 43.68052 -79.61745 565 ft 4 kts 140°
2026-05-05 20:07 43.68074 -79.61765 565 ft 4 kts 162°
2026-05-05 20:07 43.68098 -79.61767 568 ft 4 kts 212°
2026-05-05 20:08 43.68107 -79.61757 567 ft 1 kts 226°
2026-05-05 20:12 43.68106 -79.61759 561 ft 2 kts 226°
2026-05-05 20:12 43.68067 -79.61815 564 ft 11 kts 226°
2026-05-05 20:13 43.68011 -79.61898 567 ft 10 kts 230°
2026-05-05 20:13 43.67989 -79.61970 561 ft 8 kts 250°
2026-05-05 20:13 43.67962 -79.62047 563 ft 9 kts 253°
2026-05-05 20:13 43.67995 -79.62131 563 ft 12 kts 316°
2026-05-05 20:14 43.68066 -79.62223 570 ft 16 kts 317°
2026-05-05 20:14 43.68151 -79.62333 562 ft 17 kts 316°
2026-05-05 20:14 43.68236 -79.62440 564 ft 17 kts 321°
2026-05-05 20:14 43.68296 -79.62509 562 ft 17 kts 317°
2026-05-05 20:15 43.68382 -79.62622 566 ft 17 kts 316°
2026-05-05 20:15 43.68475 -79.62744 562 ft 19 kts 316°
2026-05-05 20:15 43.68578 -79.62877 562 ft 21 kts 316°
2026-05-05 20:15 43.68689 -79.63022 561 ft 23 kts 316°
2026-05-05 20:16 43.68803 -79.63170 562 ft 21 kts 316°
2026-05-05 20:16 43.68903 -79.63302 563 ft 18 kts 316°
2026-05-05 20:16 43.68990 -79.63413 564 ft 16 kts 317°
2026-05-05 20:16 43.69065 -79.63513 566 ft 13 kts 316°
2026-05-05 20:17 43.69133 -79.63506 567 ft 10 kts 44°
2026-05-05 20:17 43.69171 -79.63455 569 ft 6 kts 44°
2026-05-05 20:17 43.69198 -79.63431 569 ft 5 kts 23°
2026-05-05 20:17 43.69248 -79.63422 566 ft 10 kts
2026-05-05 20:18 43.69321 -79.63418 567 ft 8 kts
2026-05-05 20:18 43.69374 -79.63444 561 ft 9 kts 319°
2026-05-05 20:18 43.69410 -79.63500 564 ft 7 kts 280°
2026-05-05 20:18 43.69388 -79.63547 562 ft 0 kts 227°
2026-05-05 20:19 43.69346 -79.63608 563 ft 37 kts 226°
2026-05-05 20:19 43.68994 -79.64122 570 ft 107 kts 226°
2026-05-05 20:19 43.68345 -79.65065 570 ft 160 kts 228°
2026-05-05 20:20 43.67591 -79.66193 1240 ft 154 kts 235°
2026-05-05 20:20 43.66957 -79.67361 2008 ft 150 kts 240°
2026-05-05 20:20 43.66344 -79.68592 2494 ft 166 kts 241°
2026-05-05 20:20 43.65646 -79.70007 2840 ft 190 kts 240°
2026-05-05 20:21 43.64867 -79.71629 3244 ft 215 kts 237°
2026-05-05 20:21 43.63694 -79.73097 3700 ft 246 kts 210°
2026-05-05 20:21 43.61962 -79.73571 4469 ft 265 kts 180°
2026-05-05 20:21 43.60187 -79.72824 5430 ft 278 kts 156°
2026-05-05 20:22 43.58671 -79.71065 6370 ft 292 kts 141°
2026-05-05 20:22 43.57262 -79.69029 7270 ft 295 kts 141°
2026-05-05 20:22 43.55854 -79.66962 8194 ft 296 kts 142°
2026-05-05 20:22 43.54450 -79.64888 9190 ft 296 kts 143°
2026-05-05 20:23 43.53035 -79.62800 10068 ft 300 kts 142°
2026-05-05 20:23 43.51820 -79.60368 10813 ft 319 kts 125°
2026-05-05 20:23 43.51086 -79.57318 11144 ft 356 kts 104°
2026-05-05 20:23 43.51173 -79.53781 11561 ft 383 kts 80°
2026-05-05 20:24 43.51890 -79.50193 12231 ft 392 kts 77°
2026-05-05 20:24 43.52619 -79.46548 12951 ft 397 kts 77°
2026-05-05 20:24 43.53335 -79.42844 13657 ft 403 kts 78°
2026-05-05 20:24 43.54089 -79.39094 14263 ft 410 kts 76°
2026-05-05 20:25 43.54911 -79.35308 14879 ft 415 kts 74°
2026-05-05 20:25 43.55779 -79.31487 15536 ft 419 kts 73°
2026-05-05 20:25 43.56670 -79.27640 16184 ft 424 kts 73°
2026-05-05 20:25 43.57572 -79.23749 16841 ft 428 kts 73°
2026-05-05 20:26 43.58471 -79.19824 17487 ft 432 kts 73°
2026-05-05 20:26 43.59367 -79.15850 18112 ft 436 kts 74°
2026-05-05 20:26 43.60259 -79.11830 18682 ft 440 kts 74°
2026-05-05 20:26 43.61151 -79.07771 19236 ft 444 kts 74°
2026-05-05 20:27 43.62047 -79.03681 19816 ft 446 kts 74°
2026-05-05 20:27 43.62950 -78.99569 20419 ft 449 kts 74°
2026-05-05 20:27 43.63857 -78.95435 20983 ft 452 kts 74°
2026-05-05 20:27 43.64774 -78.91267 21531 ft 456 kts 74°
2026-05-05 20:28 43.65701 -78.87058 22080 ft 459 kts 74°
2026-05-05 20:28 43.66632 -78.82820 22623 ft 463 kts 74°
2026-05-05 20:28 43.67568 -78.78549 23195 ft 467 kts 74°
2026-05-05 20:28 43.68509 -78.74236 23621 ft 471 kts 74°
2026-05-05 20:29 43.69606 -78.69950 24036 ft 475 kts 66°
2026-05-05 20:29 43.70905 -78.65734 24478 ft 477 kts 66°
2026-05-05 20:29 43.72197 -78.61553 24940 ft 479 kts 66°
2026-05-05 20:29 43.73510 -78.57298 25378 ft 482 kts 66°
2026-05-05 20:30 43.74824 -78.53021 25783 ft 485 kts 66°
2026-05-05 20:30 43.76145 -78.48720 26178 ft 488 kts 65°
2026-05-05 20:30 43.77476 -78.44374 26566 ft 491 kts 65°
2026-05-05 20:30 43.78811 -78.40009 26952 ft 494 kts 65°
2026-05-05 20:31 43.80153 -78.35611 27322 ft 497 kts 65°
2026-05-05 20:31 43.81501 -78.31184 27692 ft 500 kts 65°
2026-05-05 20:31 43.82858 -78.26722 28058 ft 504 kts 66°
2026-05-05 20:31 43.84226 -78.22214 28324 ft 509 kts 66°
2026-05-05 20:32 43.85602 -78.17674 28646 ft 513 kts 66°
2026-05-05 20:32 43.86984 -78.13103 28986 ft 516 kts 66°
2026-05-05 20:32 43.88370 -78.08502 29314 ft 519 kts 66°
2026-05-05 20:32 43.89762 -78.03871 29642 ft 522 kts 65°
2026-05-05 20:33 43.91161 -77.99214 29946 ft 524 kts 65°
2026-05-05 20:33 43.92564 -77.94528 30194 ft 526 kts 65°
2026-05-05 20:33 43.93964 -77.89841 30560 ft 526 kts 65°
2026-05-05 20:33 43.95366 -77.85156 30725 ft 525 kts 65°
2026-05-05 20:34 43.96751 -77.80529 30781 ft 510 kts 65°
2026-05-05 20:34 43.99446 -77.71497 30764 ft 510 kts 65°
2026-05-05 20:35 44.02157 -77.62378 30764 ft 510 kts 65°
2026-05-05 20:35 44.04843 -77.53266 30769 ft 508 kts 65°
2026-05-05 20:36 44.07559 -77.44221 30765 ft 505 kts 60°
2026-05-05 20:36 44.11207 -77.35931 30760 ft 501 kts 52°
2026-05-05 20:37 44.14967 -77.27839 30753 ft 501 kts 53°
2026-05-05 20:37 44.18739 -77.19662 30731 ft 501 kts 53°
2026-05-05 20:38 44.22502 -77.11504 30748 ft 500 kts 53°
2026-05-05 20:38 44.26261 -77.03359 30779 ft 499 kts 53°
2026-05-05 20:39 44.30014 -76.95192 30736 ft 500 kts 53°
2026-05-05 20:39 44.33766 -76.87000 30723 ft 501 kts 53°
2026-05-05 20:40 44.37514 -76.78793 30703 ft 501 kts 53°
2026-05-05 20:40 44.41257 -76.70578 30717 ft 499 kts 53°
2026-05-05 20:41 44.44984 -76.62384 30721 ft 499 kts 53°
2026-05-05 20:41 44.48703 -76.54159 30711 ft 500 kts 53°
2026-05-05 20:42 44.52400 -76.45975 30710 ft 500 kts 53°
2026-05-05 20:42 44.56117 -76.37734 30707 ft 500 kts 53°
2026-05-05 20:43 44.59828 -76.29462 30684 ft 501 kts 53°
2026-05-05 20:43 44.63470 -76.21129 30694 ft 502 kts 59°
2026-05-05 20:44 44.66233 -76.12085 30697 ft 504 kts 65°
2026-05-05 20:44 44.68916 -76.02992 30697 ft 503 kts 65°
2026-05-05 20:45 44.72807 -75.89338 30654 ft 505 kts 68°
2026-05-05 20:45 44.74028 -75.84703 30242 ft 505 kts 68°
2026-05-05 20:45 44.75221 -75.80078 29813 ft 502 kts 69°
2026-05-05 20:46 44.76415 -75.75463 29311 ft 501 kts 69°
2026-05-05 20:46 44.77618 -75.70854 28812 ft 501 kts 69°
2026-05-05 20:46 44.78830 -75.66250 28314 ft 499 kts 69°
2026-05-05 20:46 44.80042 -75.61675 27827 ft 499 kts 69°
2026-05-05 20:47 44.81253 -75.57113 27350 ft 496 kts 69°
2026-05-05 20:47 44.82454 -75.52579 26896 ft 492 kts 70°
2026-05-05 20:47 44.83643 -75.48072 26485 ft 489 kts 70°
2026-05-05 20:47 44.84835 -75.43602 26092 ft 486 kts 70°
2026-05-05 20:48 44.86065 -75.39168 25647 ft 483 kts 69°
2026-05-05 20:48 44.87313 -75.34799 25251 ft 478 kts 69°
2026-05-05 20:48 44.88560 -75.30487 24863 ft 473 kts 69°
2026-05-05 20:48 44.89798 -75.26204 24474 ft 470 kts 69°
2026-05-05 20:49 44.91018 -75.21942 24094 ft 467 kts 70°
2026-05-05 20:49 44.92219 -75.17696 23715 ft 464 kts 70°
2026-05-05 20:49 44.93400 -75.13479 23339 ft 461 kts 71°
2026-05-05 20:49 44.94568 -75.09280 22927 ft 458 kts 71°
2026-05-05 20:50 44.95729 -75.05107 22487 ft 456 kts 71°
2026-05-05 20:50 44.96494 -75.02354 22199 ft 454 kts 71°
2026-05-05 20:50 44.98032 -74.96826 21677 ft 452 kts 70°
2026-05-05 20:50 44.99396 -74.92885 21237 ft 452 kts 62°
2026-05-05 20:51 45.00940 -74.89023 20803 ft 449 kts 62°
2026-05-05 20:51 45.02471 -74.85199 20399 ft 446 kts 61°
2026-05-05 20:51 45.03992 -74.81394 20002 ft 443 kts 61°
2026-05-05 20:51 45.05504 -74.77604 19611 ft 441 kts 61°
2026-05-05 20:52 45.07005 -74.73832 19214 ft 439 kts 61°
2026-05-05 20:52 45.08492 -74.70076 18831 ft 437 kts 62°
2026-05-05 20:52 45.09970 -74.66331 18457 ft 435 kts 61°
2026-05-05 20:52 45.11444 -74.62605 18083 ft 433 kts 61°
2026-05-05 20:53 45.12940 -74.58918 17684 ft 432 kts 59°
2026-05-05 20:53 45.14499 -74.55281 17230 ft 430 kts 58°
2026-05-05 20:53 45.16084 -74.51701 16789 ft 428 kts 57°
2026-05-05 20:53 45.17675 -74.48150 16353 ft 424 kts 57°
2026-05-05 20:54 45.19250 -74.44625 15907 ft 421 kts 57°
2026-05-05 20:54 45.20808 -74.41111 15476 ft 419 kts 58°
2026-05-05 20:54 45.22322 -74.37653 15046 ft 417 kts 58°
2026-05-05 20:54 45.23844 -74.34136 14615 ft 406 kts 58°
2026-05-05 20:55 45.25272 -74.30814 14216 ft 397 kts 58°
2026-05-05 20:55 45.26707 -74.27462 13797 ft 396 kts 58°
2026-05-05 20:55 45.28139 -74.24118 13418 ft 395 kts 58°
2026-05-05 20:55 45.29564 -74.20800 12969 ft 392 kts 58°
2026-05-05 20:56 45.30967 -74.17543 12516 ft 380 kts 58°
2026-05-05 20:56 45.32326 -74.14383 12093 ft 372 kts 58°
2026-05-05 20:56 45.33671 -74.11245 11685 ft 371 kts 58°
2026-05-05 20:56 45.35013 -74.08113 11280 ft 371 kts 57°
2026-05-05 20:57 45.36531 -74.05161 10878 ft 369 kts 45°
2026-05-05 20:57 45.38344 -74.02678 10512 ft 355 kts 38°
2026-05-05 20:57 45.40138 -74.00357 10153 ft 343 kts 38°
2026-05-05 20:57 45.41892 -73.98078 9817 ft 341 kts 38°
2026-05-05 20:58 45.43639 -73.95808 9503 ft 340 kts 38°
2026-05-05 20:58 45.45380 -73.93538 9137 ft 338 kts 38°
2026-05-05 20:58 45.47109 -73.91277 8768 ft 336 kts 38°
2026-05-05 20:58 45.48822 -73.89038 8417 ft 333 kts 38°
2026-05-05 20:59 45.50510 -73.86832 8077 ft 323 kts 38°
2026-05-05 20:59 45.52116 -73.84730 7753 ft 314 kts 38°
2026-05-05 20:59 45.53719 -73.82636 7431 ft 311 kts 38°
2026-05-05 20:59 45.55309 -73.80561 7099 ft 308 kts 38°
2026-05-05 21:00 45.56882 -73.78502 6783 ft 305 kts 38°
2026-05-05 21:00 45.58413 -73.76492 6449 ft 292 kts 38°
2026-05-05 21:00 45.59900 -73.74540 6149 ft 289 kts 37°
2026-05-05 21:00 45.60877 -73.73259 5936 ft 287 kts 38°
2026-05-05 21:01 45.62341 -73.71340 5609 ft 284 kts 37°
2026-05-05 21:01 45.63789 -73.69442 5278 ft 281 kts 38°
2026-05-05 21:01 45.65220 -73.67563 4952 ft 278 kts 37°
2026-05-05 21:01 45.66640 -73.65694 4630 ft 276 kts 38°
2026-05-05 21:02 45.68052 -73.63834 4304 ft 274 kts 38°
2026-05-05 21:02 45.69447 -73.61988 3966 ft 273 kts 39°
2026-05-05 21:02 45.70832 -73.60148 3630 ft 270 kts 38°
2026-05-05 21:02 45.72089 -73.58169 3303 ft 271 kts 59°
2026-05-05 21:03 45.72631 -73.55650 3007 ft 261 kts 93°
2026-05-05 21:03 45.72250 -73.53218 2978 ft 245 kts 124°
2026-05-05 21:03 45.71268 -73.51333 2973 ft 227 kts 148°
2026-05-05 21:03 45.70031 -73.50161 2999 ft 203 kts 167°
2026-05-05 21:04 45.68714 -73.49647 3019 ft 190 kts 184°
2026-05-05 21:04 45.67436 -73.49708 2997 ft 180 kts 199°
2026-05-05 21:04 45.66312 -73.50235 2991 ft 159 kts 214°
2026-05-05 21:04 45.65435 -73.51066 2995 ft 150 kts 226°
2026-05-05 21:05 45.64679 -73.52062 2996 ft 147 kts 227°
2026-05-05 21:05 45.63926 -73.53059 2998 ft 148 kts 227°
2026-05-05 21:05 45.63174 -73.54053 2997 ft 147 kts 227°
2026-05-05 21:05 45.62425 -73.55042 2997 ft 146 kts 227°
2026-05-05 21:06 45.61673 -73.56036 2996 ft 148 kts 227°
2026-05-05 21:06 45.60908 -73.57046 2999 ft 150 kts 227°
2026-05-05 21:06 45.60141 -73.58057 3003 ft 150 kts 227°
2026-05-05 21:06 45.59398 -73.59033 2927 ft 140 kts 227°
2026-05-05 21:07 45.58689 -73.59968 2806 ft 138 kts 226°
2026-05-05 21:07 45.57990 -73.60890 2644 ft 136 kts 227°
2026-05-05 21:07 45.57292 -73.61810 2476 ft 137 kts 225°
2026-05-05 21:07 45.56592 -73.62733 2300 ft 136 kts 225°
2026-05-05 21:08 45.55896 -73.63648 2111 ft 135 kts 224°
2026-05-05 21:08 45.55201 -73.64563 1932 ft 136 kts 224°
2026-05-05 21:08 45.54515 -73.65465 1753 ft 135 kts 224°
2026-05-05 21:08 45.53817 -73.66383 1568 ft 138 kts 224°
2026-05-05 21:09 45.53153 -73.67255 1403 ft 124 kts 224°
2026-05-05 21:09 45.52526 -73.68078 1234 ft 121 kts 224°
2026-05-05 21:09 45.51919 -73.68875 1076 ft 117 kts 225°
2026-05-05 21:09 45.51329 -73.69654 919 ft 117 kts 225°
2026-05-05 21:10 45.50737 -73.70430 790 ft 114 kts 224°
2026-05-05 21:10 45.50123 -73.71223 594 ft 123 kts 223°
2026-05-05 21:10 45.49523 -73.72008 460 ft 116 kts 227°
2026-05-05 21:10 45.48929 -73.72794 292 ft 118 kts 225°
2026-05-05 21:11 45.48326 -73.73593 179 ft 119 kts 224°
2026-05-05 21:11 45.47753 -73.74346 112 ft 98 kts 223°
2026-05-05 21:11 45.47452 -73.74741 112 ft 36 kts 223°
2026-05-05 21:11 45.47298 -73.74912 115 ft 26 kts 205°
2026-05-05 21:12 45.47142 -73.74974 112 ft 18 kts 193°
2026-05-05 21:12 45.47025 -73.75013 110 ft 18 kts 193°
2026-05-05 21:12 45.46917 -73.75042 110 ft 16 kts 183°
2026-05-05 21:12 45.46800 -73.75037 109 ft 18 kts 177°
2026-05-05 21:13 45.46667 -73.75028 108 ft 20 kts 178°
2026-05-05 21:13 45.46520 -73.75019 106 ft 22 kts 176°
2026-05-05 21:13 45.46363 -73.75009 106 ft 22 kts 178°
2026-05-05 21:13 45.46227 -73.75001 105 ft 15 kts 177°
2026-05-05 21:14 45.46159 -73.75034 104 ft 11 kts 235°
2026-05-05 21:14 45.46148 -73.75152 102 ft 13 kts 268°
2026-05-05 21:14 45.46144 -73.75290 101 ft 13 kts 268°
2026-05-05 21:14 45.46098 -73.75366 102 ft 11 kts 181°
2026-05-05 21:15 45.46044 -73.75328 105 ft 8 kts 127°
2026-05-05 21:15 45.46017 -73.75250 105 ft 10 kts 109°
2026-05-05 21:15 45.46004 -73.75143 105 ft 12 kts 89°
2026-05-05 21:15 45.46004 -73.75032 105 ft 10 kts 105°
2026-05-05 21:16 45.45982 -73.74942 103 ft 9 kts 99°
2026-05-05 21:16 45.45982 -73.74859 105 ft 10 kts 88°
2026-05-05 21:16 45.45977 -73.74758 105 ft 10 kts 105°
2026-05-05 21:16 45.45958 -73.74676 105 ft 8 kts 100°
2026-05-05 21:17 45.45958 -73.74604 105 ft 7 kts 84°
2026-05-05 21:17 45.45942 -73.74550 104 ft 6 kts 158°
2026-05-05 21:17 45.45901 -73.74545 105 ft 5 kts 177°
2026-05-05 21:17 45.45885 -73.74544 105 ft 0 kts 178°